[[{"header":{"parameterUnit":"m.s-1","parameterCategory":2,"la1":30.2991,"la2":30.254,"lo1":-89.0895,"lo2":-89.0444,"dy":0.0017,"dx":0.0017,"nx":28,"ny":28,"refTime":"2023-11-20T09:00:00:Z","depth":"0","parameterNumber":2,"parameterNumberName":"U-component_of_CURRENTS"},"data":[0,0,0,0,0,0,0,0,0,0,0,0,0,0,0,0,0,0,0,0,0,0,0,0,0,0,0,0,0,0,0,0,0,0,0,0,0,0,0,0,0,0,0,0,0,0,0,0,0,0,0,0,0,0,0,0,0,0,0.3199,0.32,0,0.3223,0.3223,0.3224,0.3163,0.3161,0.3159,0.3157,0.3145,0.3147,0.3149,0,0,0,0,0,0,0,0,0,0,0,0,0,0.3194,0.3194,0.3199,0.32,0.32,0.3223,0.3223,0.3224,0.3163,0.3161,0.3158,0.3156,0.3145,0.3147,0.3149,0,0,0,0,0,0,0,0,0,0,0,0,0,0.3206,0.3194,0.3199,0.3172,0.3169,0.3223,0.3223,0.3224,0.3164,0.316,0.3157,0.3155,0.3144,0.3147,0.3149,0.3224,0,0,0.3156,0.3157,0,0,0,0,0,0,0,0,0.3205,0.3206,0.3175,0.3174,0.3171,0.3186,0.3217,0.3222,0.3164,0.3167,0.3157,0.3153,0.3157,0.3159,0.3172,0.3223,0.3223,0.3156,0.3158,0.3159,0.3159,0,0,0,0,0,0,0,0.3204,0.3205,0.321,0.3176,0.3173,0.319,0.3187,0.3219,0.3179,0.3166,0.3162,0.3164,0.3156,0.3169,0.3171,0.3222,0.3156,0.3158,0.316,0.3161,0.337,0.3374,0,0,0,0,0,0,0.3198,0.3204,0.3209,0.321,0.318,0.3192,0.3189,0.3185,0.3179,0.3175,0.3166,0.3161,0.3167,0.3168,0.317,0.3283,0.3159,0.3161,0.3162,0.3366,0.3371,0.3375,0,0,0,0,0,0,0.3198,0.3198,0.3208,0.3207,0.3209,0.3194,0.3191,0.3187,0.3203,0.3179,0.3174,0.3186,0.3165,0.3167,0.3227,0.328,0.3162,0.3164,0.3361,0.3367,0.3373,0.3493,0,0,0,0,0,0,0.3198,0.3198,0.32,0.3207,0.3209,0.3248,0.3193,0.319,0.3208,0.3202,0.3195,0.319,0.3162,0.3224,0.323,0.3282,0.3166,0.3356,0.3364,0.3371,0.3484,0.3502,0.3518,0,0,0,0,0,0.3197,0.3202,0.32,0.3201,0.321,0.325,0.3255,0.3234,0.3213,0.3235,0.3244,0.3191,0.3276,0.323,0.3235,0.3289,0.3352,0.3362,0.3371,0.3476,0.3499,0.3518,0,0,0,0,0,0,0.3185,0.3197,0.3194,0.3197,0.3229,0.3239,0.3252,0.3255,0.3283,0.3271,0.325,0.3249,0.3322,0.3306,0.3255,0.3377,0.3304,0.3315,0.3383,0.3404,0.3421,0.3472,0.3168,0,0,0,0,0,0.3192,0.3204,0.3225,0.3232,0.3247,0.3262,0.3277,0.3273,0.3295,0.3302,0.3309,0.3326,0.3371,0.3383,0.3412,0.3485,0.3531,0.3524,0.3542,0.3556,0.3606,0.3724,0.3757,0.3406,0.3406,0.3406,0,0,0.3192,0.3197,0.3205,0.3233,0.3249,0.3307,0.3263,0.3293,0.3353,0.3301,0.3382,0.3391,0.3408,0.3485,0.3516,0.3471,0.3686,0.3568,0.358,0.3623,0.3737,0.3771,0.3802,0.3412,0.3411,0.341,0,0,0.3233,0.3205,0.3257,0.3282,0.3319,0.3334,0.3353,0.3389,0.341,0.3489,0.3482,0.3546,0.3581,0.363,0.3653,0.3797,0.378,0.3782,0.3903,0.4016,0.4046,0.4073,0.4193,0.423,0.3782,0.3782,0.3783,0,0.3241,0.3317,0.328,0.334,0.3394,0.3358,0.346,0.347,0.3526,0.3589,0.3521,0.3667,0.3665,0.3813,0.3853,0.3838,0.3896,0.3811,0.4039,0.4067,0.4092,0.4208,0.4247,0.3789,0.3788,0.3788,0.3787,0,0.3366,0.3408,0.3435,0.3512,0.3545,0.362,0.3637,0.3685,0.3696,0.3726,0.3857,0.3867,0.3963,0.396,0.3946,0.4136,0.4119,0.405,0.3981,0.4135,0.4247,0.4286,0.3799,0.3797,0.3795,0.3793,0,0,0.3503,0.3528,0.3551,0.3616,0.3663,0.3712,0.3797,0.3917,0.4001,0.4012,0.417,0.4225,0.4221,0.4254,0.4245,0.4328,0.4547,0.427,0.4273,0.4383,0.482,0.4739,0.4771,0.4504,0.4511,0.4517,0.4832,0,0.3666,0.3788,0.3779,0.3929,0.4022,0.4006,0.4094,0.4156,0.4192,0.4305,0.4325,0.443,0.4329,0.4385,0.4463,0.4529,0.4652,0.4471,0.4663,0.467,0.4572,0.4814,0.461,0.4868,0.4869,0.4875,0.488,0,0.3895,0.3937,0.409,0.4176,0.4219,0.4279,0.4436,0.4503,0.4594,0.4625,0.4703,0.4693,0.4844,0.4709,0.4921,0.4804,0.4859,0.4881,0.4892,0.4807,0.4661,0.4714,0.4937,0.4803,0.4938,0.4933,0.4929,0,0.4091,0.4203,0.4328,0.4356,0.4411,0.4494,0.4543,0.4623,0.4665,0.4834,0.4863,0.5019,0.5072,0.5176,0.5177,0.5088,0.5388,0.5265,0.5263,0.5256,0.5123,0.5093,0.5234,0.5477,0.5477,0.5476,0.5475,0,0.4308,0.4407,0.4416,0.4467,0.4596,0.4634,0.4765,0.4817,0.4905,0.4952,0.5024,0.5085,0.5182,0.5295,0.5328,0.5424,0.552,0.5378,0.5364,0.5158,0.5129,0.503,0.495,0.5487,0.5485,0.5483,0.548,0,0.4424,0.4467,0.4569,0.4639,0.4664,0.4731,0.4765,0.4829,0.4939,0.501,0.5058,0.5184,0.5346,0.5429,0.5628,0.559,0.5568,0.572,0.5475,0.5427,0.5247,0.518,0.5174,0.5031,0.5813,0.5813,0.5813,0,0.4453,0.4535,0.4599,0.461,0.4611,0.4696,0.4718,0.4817,0.485,0.5024,0.5048,0.5253,0.5343,0.5621,0.5663,0.581,0.5597,0.5679,0.5473,0.5302,0.5219,0.4983,0.4844,0.5364,0.5361,0.5358,0.5356,0,0.4457,0.449,0.4516,0.4555,0.4581,0.4594,0.4648,0.467,0.4794,0.4874,0.501,0.5136,0.5381,0.5441,0.5623,0.5655,0.5402,0.5623,0.5524,0.4987,0.467,0.4498,0.5097,0.5331,0.5333,0.5335,0.5336,0.5337,0.4395,0.4396,0.445,0.4472,0.4487,0.4488,0.447,0.4542,0.4605,0.4696,0.4896,0.5011,0.5185,0.5406,0.5414,0.5288,0.5251,0.514,0.5117,0.4928,0.4648,0.5205,0.5345,0.5347,0.5349,0.5351,0.5353,0,0.4313,0.4341,0.4357,0.4381,0.4352,0.4396,0.4401,0.4367,0.44,0.4548,0.4676,0.4785,0.4864,0.4944,0.4955,0.4825,0.4576,0.4697,0.433,0.4249,0.4846,0.4679,0.4583,0.4584,0.4584,0.4584,0.4584,0.4584,0.4277,0.4285,0.4311,0.426,0.4249,0.416,0.4131,0.4101,0.4158,0.4173,0.4206,0.4339,0.4526,0.4659,0.4548,0.4439,0.4118,0.3941,0.3942,0.4368,0.4405,0.444,0.4266,0.4086,0.4085,0.3144,0.3137,0.3132]},{"header":{"parameterUnit":"m.s-1","parameterCategory":2,"la1":30.2991,"la2":30.254,"lo1":-89.0895,"lo2":-89.0444,"dy":0.0017,"dx":0.0017,"nx":28,"ny":28,"refTime":"2023-11-20T09:00:00:Z","depth":"0","parameterNumber":3,"parameterNumberName":"V-component_of_CURRENTS"},"data":[0,0,0,0,0,0,0,0,0,0,0,0,0,0,0,0,0,0,0,0,0,0,0,0,0,0,0,0,0,0,0,0,0,0,0,0,0,0,0,0,0,0,0,0,0,0,0,0,0,0,0,0,0,0,0,0,0,0,-0.0241,-0.0242,0,-0.0309,-0.031,-0.0311,-0.0333,-0.0333,-0.0332,-0.0332,-0.0493,-0.0497,-0.0502,0,0,0,0,0,0,0,0,0,0,0,0,0,-0.0238,-0.0237,-0.0241,-0.0242,-0.0243,-0.0309,-0.031,-0.0311,-0.0333,-0.0333,-0.0332,-0.0332,-0.0491,-0.0497,-0.0503,0,0,0,0,0,0,0,0,0,0,0,0,0,-0.0267,-0.0237,-0.0241,-0.026,-0.0262,-0.0309,-0.031,-0.0312,-0.0333,-0.0333,-0.0332,-0.0331,-0.0489,-0.0496,-0.0503,-0.0563,0,0,-0.0525,-0.0528,0,0,0,0,0,0,0,0,-0.0266,-0.0268,-0.0256,-0.0259,-0.0261,-0.031,-0.0368,-0.0399,-0.0334,-0.0309,-0.0332,-0.0331,-0.0439,-0.0451,-0.0467,-0.057,-0.0577,-0.0526,-0.053,-0.0533,-0.0535,0,0,0,0,0,0,0,-0.0263,-0.0266,-0.027,-0.0257,-0.026,-0.0301,-0.0304,-0.0374,-0.0381,-0.0311,-0.0312,-0.0316,-0.0441,-0.046,-0.0471,-0.0579,-0.0526,-0.0532,-0.0536,-0.0539,-0.0746,-0.0747,0,0,0,0,0,0,-0.0246,-0.0263,-0.0268,-0.0272,-0.0259,-0.0301,-0.0305,-0.0297,-0.0378,-0.0388,-0.0317,-0.0317,-0.0448,-0.0463,-0.0477,-0.0522,-0.0533,-0.054,-0.0544,-0.0745,-0.0746,-0.0748,0,0,0,0,0,0,-0.0245,-0.0245,-0.0265,-0.0268,-0.0273,-0.0301,-0.0293,-0.0299,-0.0314,-0.0381,-0.0394,-0.0326,-0.0448,-0.0467,-0.0541,-0.053,-0.0543,-0.0549,-0.0744,-0.0745,-0.0747,-0.0633,0,0,0,0,0,0,-0.0244,-0.0244,-0.0237,-0.0266,-0.0272,-0.0286,-0.0294,-0.03,-0.0317,-0.0318,-0.0394,-0.0408,-0.0449,-0.053,-0.0548,-0.054,-0.0555,-0.0742,-0.0744,-0.0747,-0.0635,-0.063,-0.0626,0,0,0,0,0,-0.0244,-0.023,-0.0236,-0.0237,-0.0259,-0.0285,-0.0293,-0.0313,-0.0318,-0.0325,-0.0381,-0.0405,-0.0557,-0.0537,-0.0558,-0.0551,-0.0741,-0.0744,-0.0746,-0.0637,-0.0631,-0.0626,0,0,0,0,0,0,-0.0221,-0.0232,-0.0239,-0.0228,-0.0252,-0.0288,-0.0293,-0.0313,-0.0361,-0.0363,-0.0428,-0.0447,-0.051,-0.056,-0.0536,-0.0623,-0.0652,-0.0659,-0.0561,-0.0557,-0.0553,-0.0451,-0.0561,0,0,0,0,0,-0.0213,-0.0208,-0.023,-0.0224,-0.023,-0.0264,-0.0278,-0.0293,-0.0337,-0.0355,-0.0412,-0.0478,-0.0541,-0.0568,-0.064,-0.0688,-0.0662,-0.07,-0.0696,-0.0692,-0.0628,-0.0583,-0.0565,-0.0757,-0.0757,-0.0757,0,0,-0.0205,-0.0209,-0.0207,-0.022,-0.0238,-0.0241,-0.0271,-0.0285,-0.029,-0.037,-0.0405,-0.0477,-0.0557,-0.0607,-0.0638,-0.064,-0.0633,-0.0695,-0.069,-0.0627,-0.0583,-0.0563,-0.0546,-0.0759,-0.0758,-0.0758,0,0,-0.0174,-0.0185,-0.0165,-0.0184,-0.0203,-0.0227,-0.0228,-0.0268,-0.0284,-0.0341,-0.039,-0.0431,-0.0558,-0.057,-0.0603,-0.0621,-0.0623,-0.0678,-0.0555,-0.0514,-0.0495,-0.0478,-0.0434,-0.0414,-0.066,-0.0659,-0.0659,0,-0.016,-0.0128,-0.0168,-0.0156,-0.0148,-0.0214,-0.0184,-0.0228,-0.0291,-0.0269,-0.0342,-0.0426,-0.052,-0.0499,-0.0522,-0.0599,-0.058,-0.056,-0.0497,-0.048,-0.0464,-0.0424,-0.0403,-0.0654,-0.0655,-0.0655,-0.0656,0,-0.0111,-0.0092,-0.0083,-0.0081,-0.0092,-0.0082,-0.0129,-0.0143,-0.0185,-0.0203,-0.0211,-0.032,-0.0332,-0.0405,-0.0482,-0.0417,-0.0442,-0.0502,-0.0485,-0.0436,-0.04,-0.038,-0.0647,-0.0649,-0.065,-0.0652,0,0,-0.0028,-0.004,-0.0029,0.0012,-0.0036,-0.0015,-0.0034,-0.0011,0.0052,-0.0051,0.0044,-0.0102,-0.0113,-0.0149,-0.0233,-0.0222,-0.0147,-0.0311,-0.0312,-0.0221,-0.004,-0.0102,-0.0087,-0.0194,-0.019,-0.0186,-0.0063,0,0.0044,0.0112,0.0071,0.0143,0.0192,0.0137,0.0151,0.0152,0.013,0.0183,0.0117,0.0132,-0.0031,-0.0019,-0.0032,-0.0118,-0.0087,-0.0173,-0.014,-0.0137,-0.016,-0.0063,-0.0124,-0.0022,-0.0043,-0.004,-0.0037,0,0.0147,0.0183,0.0273,0.0335,0.0354,0.0373,0.0466,0.0464,0.049,0.0481,0.0501,0.0438,0.0445,0.0285,0.0253,0.0204,0.0112,0.0035,0.0037,-0.0027,-0.016,-0.0078,0.0015,-0.0245,-0.0007,-0.0009,-0.0011,0,0.031,0.0352,0.0451,0.0459,0.0484,0.0542,0.0561,0.0589,0.0626,0.0704,0.0752,0.0748,0.0756,0.066,0.046,0.0375,0.0429,0.0293,0.0174,0.0167,0.0126,0.0109,0.0023,0.0321,0.032,0.032,0.032,0,0.0446,0.0528,0.0546,0.0602,0.0725,0.0713,0.0842,0.0857,0.0916,0.0994,0.0939,0.101,0.0845,0.0813,0.0617,0.0483,0.0565,0.0259,0.022,0.0154,0.0139,-0.0086,-0.0227,0.0324,0.0323,0.0323,0.0322,0,0.0583,0.0609,0.0709,0.0769,0.0801,0.0889,0.0949,0.1022,0.1094,0.12,0.1233,0.1244,0.1218,0.1052,0.0924,0.0699,0.0419,0.0495,0.043,0.038,-0.0032,-0.0163,-0.0215,-0.034,0.0399,0.0399,0.0398,0,0.0639,0.0714,0.0803,0.0842,0.086,0.0969,0.1015,0.1092,0.1156,0.1324,0.138,0.1442,0.1479,0.1313,0.0976,0.0738,0.0464,0.0472,0.0282,0.0001,-0.0174,-0.0279,-0.039,0.0266,0.0265,0.0264,0.0263,0,0.0692,0.0732,0.0782,0.0873,0.0942,0.1031,0.1123,0.1218,0.1322,0.1469,0.1654,0.1743,0.1596,0.1378,0.1042,0.0789,0.0258,0.0436,0.0179,-0.0227,-0.037,-0.053,0.0121,0.0253,0.0254,0.0254,0.0255,0.0255,0.0668,0.0702,0.0763,0.0855,0.094,0.107,0.1184,0.1317,0.1511,0.1788,0.1843,0.2072,0.1701,0.1256,0.0895,0.0168,0.0184,-0.0106,-0.0218,-0.0279,-0.0473,0.0159,0.0204,0.0204,0.0205,0.0206,0.0206,0,0.0594,0.0651,0.0722,0.0848,0.0949,0.1021,0.1218,0.1384,0.1656,0.196,0.2192,0.2185,0.1659,0.1097,0.0159,-0.0378,-0.0608,-0.0681,-0.0861,-0.0928,-0.033,-0.0417,-0.0545,-0.0545,-0.0544,-0.0544,-0.0544,-0.0543,0.0549,0.0595,0.0659,0.0814,0.0921,0.1122,0.1265,0.1562,0.1844,0.2287,0.2521,0.2659,0.2207,0.0514,-0.0701,-0.1005,-0.136,-0.144,-0.1587,-0.1237,-0.1194,-0.1153,-0.127,-0.1574,-0.1576,-0.2176,-0.2182,-0.2186]}],[{"header":{"parameterUnit":"m.s-1","parameterCategory":2,"la1":30.2991,"la2":30.254,"lo1":-89.0895,"lo2":-89.0444,"dy":0.0017,"dx":0.0017,"nx":28,"ny":28,"refTime":"2023-11-20T09:00:00:Z","depth":"2","parameterNumber":2,"parameterNumberName":"U-component_of_CURRENTS"},"data":[0,0,0,0,0,0,0,0,0,0,0,0,0,0,0,0,0,0,0,0,0,0,0,0,0,0,0,0,0,0,0,0,0,0,0,0,0,0,0,0,0,0,0,0,0,0,0,0,0,0,0,0,0,0,0,0,0,0,0.2382,0.2383,0,0.2427,0.2427,0.2427,0.243,0.243,0.243,0.2429,0.2468,0.2469,0.247,0,0,0,0,0,0,0,0,0,0,0,0,0,0.2288,0.2289,0.2382,0.2383,0.2384,0.2427,0.2427,0.2427,0.243,0.243,0.243,0.2429,0.2467,0.2469,0.247,0,0,0,0,0,0,0,0,0,0,0,0,0,0.2327,0.229,0.2382,0.2393,0.2395,0.2427,0.2427,0.2427,0.243,0.243,0.2429,0.2429,0.2467,0.2469,0.247,0.2486,0,0,0.2476,0.2477,0,0,0,0,0,0,0,0,0.2324,0.2329,0.239,0.2392,0.2394,0.2426,0.2408,0.2448,0.243,0.2413,0.2429,0.2429,0.2456,0.2458,0.2462,0.2488,0.249,0.2476,0.2477,0.2478,0.2478,0,0,0,0,0,0,0,0.2322,0.2328,0.2396,0.2391,0.2394,0.2392,0.2397,0.2415,0.2432,0.2414,0.2415,0.2426,0.2456,0.246,0.2463,0.249,0.2476,0.2477,0.2479,0.2479,0.267,0.2673,0,0,0,0,0,0,0.2325,0.2325,0.2394,0.2397,0.2362,0.2395,0.24,0.2413,0.2432,0.2436,0.2427,0.2426,0.2458,0.2461,0.2465,0.2596,0.2478,0.2479,0.248,0.2666,0.267,0.2675,0,0,0,0,0,0,0.2323,0.2331,0.2393,0.2365,0.2373,0.2397,0.2411,0.2414,0.2437,0.2442,0.2445,0.2449,0.2457,0.2462,0.2512,0.2593,0.248,0.2482,0.2661,0.2667,0.2673,0.2787,0,0,0,0,0,0,0.232,0.233,0.2348,0.2366,0.2375,0.2439,0.2412,0.2415,0.2445,0.2445,0.2462,0.2464,0.2458,0.2509,0.2513,0.2593,0.2483,0.2656,0.2664,0.2671,0.2778,0.2796,0.2812,0,0,0,0,0,0.2316,0.2342,0.2349,0.2358,0.2397,0.2441,0.2446,0.2458,0.2446,0.2473,0.2485,0.2465,0.2561,0.2513,0.2517,0.26,0.2652,0.2661,0.267,0.2771,0.2793,0.2811,0,0,0,0,0,0,0.2302,0.2346,0.2353,0.2389,0.2426,0.2443,0.2464,0.2472,0.2501,0.2502,0.2495,0.25,0.2587,0.2575,0.2522,0.2682,0.2612,0.2622,0.2688,0.2708,0.2725,0.2728,0.2485,0,0,0,0,0,0.2311,0.2342,0.2383,0.2409,0.243,0.245,0.2469,0.2486,0.251,0.2521,0.2536,0.2568,0.2626,0.2648,0.2688,0.2752,0.2766,0.2818,0.2835,0.2848,0.2858,0.2955,0.2981,0.2704,0.2704,0.2704,0,0,0.2306,0.2337,0.2352,0.241,0.2428,0.2484,0.246,0.2503,0.2566,0.2522,0.2601,0.2625,0.2659,0.2749,0.2788,0.2746,0.2939,0.286,0.2871,0.2874,0.2967,0.2994,0.3017,0.271,0.2709,0.2708,0,0,0.2333,0.2347,0.2397,0.2445,0.2503,0.2512,0.2533,0.2577,0.2615,0.2693,0.2696,0.2758,0.2826,0.2871,0.2903,0.3033,0.3029,0.3064,0.3143,0.3237,0.326,0.3281,0.3341,0.3365,0.3066,0.3066,0.3066,0,0.2334,0.2394,0.2417,0.2494,0.2534,0.2532,0.2602,0.2647,0.2708,0.2763,0.2739,0.2885,0.2893,0.3025,0.3071,0.3071,0.3114,0.3057,0.3258,0.3278,0.3297,0.3353,0.3379,0.3072,0.3072,0.3071,0.307,0,0.2432,0.2469,0.2498,0.2588,0.2642,0.2687,0.2759,0.2814,0.2844,0.2902,0.3041,0.306,0.315,0.3175,0.3157,0.3314,0.3299,0.327,0.3198,0.3331,0.3383,0.3408,0.3082,0.308,0.3078,0.3076,0,0,0.2451,0.2543,0.2554,0.2629,0.2693,0.2771,0.2851,0.2955,0.3043,0.3118,0.3252,0.3338,0.3355,0.3391,0.3393,0.3452,0.3606,0.342,0.3422,0.3465,0.3814,0.366,0.3671,0.3623,0.3628,0.3632,0.3798,0,0.251,0.265,0.2674,0.2808,0.2889,0.2919,0.3004,0.3115,0.3176,0.3306,0.3378,0.3508,0.3444,0.3504,0.356,0.3605,0.3677,0.3563,0.3691,0.3695,0.353,0.3697,0.3425,0.3539,0.3822,0.3826,0.3829,0,0.263,0.2695,0.2834,0.295,0.299,0.3076,0.3221,0.3315,0.346,0.3493,0.3606,0.3682,0.3814,0.373,0.3878,0.3816,0.3835,0.3842,0.3848,0.3678,0.3587,0.3454,0.3572,0.387,0.3866,0.3863,0.3861,0,0.2712,0.2826,0.2939,0.2993,0.3117,0.3204,0.3272,0.34,0.3466,0.3654,0.3718,0.3874,0.3951,0.4039,0.4041,0.4007,0.4165,0.4125,0.4006,0.3994,0.3771,0.373,0.4247,0.4247,0.4246,0.4246,0.4245,0,0.279,0.2886,0.3006,0.3089,0.3189,0.3329,0.3445,0.3494,0.3622,0.3699,0.3856,0.3927,0.4033,0.413,0.414,0.4136,0.4259,0.4057,0.4046,0.3802,0.3764,0.4041,0.4015,0.4252,0.4251,0.4249,0.4248,0,0.2824,0.2928,0.3044,0.3186,0.3231,0.3332,0.3433,0.3497,0.366,0.3763,0.3845,0.4002,0.413,0.4205,0.4307,0.4224,0.4265,0.4223,0.3903,0.385,0.4018,0.3996,0.4178,0.4174,0.4171,0.4168,0.4166,0,0.2823,0.2902,0.3044,0.3061,0.3105,0.3244,0.3268,0.3436,0.3482,0.3773,0.3803,0.4036,0.4067,0.4177,0.4133,0.4161,0.4226,0.3882,0.3758,0.4049,0.4022,0.4004,0.3988,0.3526,0.3519,0.3513,0.3508,0,0.2714,0.2789,0.2837,0.288,0.294,0.3005,0.3105,0.315,0.3378,0.3488,0.3637,0.3758,0.3902,0.3796,0.3832,0.3802,0.3864,0.3759,0.4209,0.3553,0.344,0.3409,0.3414,0.3456,0.3461,0.3465,0.3468,0.347,0.2536,0.2513,0.258,0.2632,0.2689,0.2763,0.28,0.291,0.3009,0.3191,0.3352,0.3441,0.3507,0.3439,0.3353,0.3328,0.3574,0.3435,0.3452,0.3477,0.3339,0.3223,0.3173,0.3176,0.3179,0.3182,0.3184,0,0.2255,0.2298,0.23,0.2384,0.2405,0.2551,0.2657,0.2681,0.2754,0.2899,0.2995,0.2817,0.2804,0.2932,0.2812,0.2788,0.2752,0.2691,0.2645,0.2701,0.275,0.2572,0.2205,0.2201,0.2198,0.2195,0,0,0.2103,0.2049,0.2111,0.2111,0.2201,0.224,0.2316,0.2365,0.2449,0.2425,0.2475,0.2682,0.2841,0.2476,0.2438,0.2315,0.2476,0.2225,0.3024,0.3028,0.3071,0.3208,0.3002,0,0,0,0,0]},{"header":{"parameterUnit":"m.s-1","parameterCategory":2,"la1":30.2991,"la2":30.254,"lo1":-89.0895,"lo2":-89.0444,"dy":0.0017,"dx":0.0017,"nx":28,"ny":28,"refTime":"2023-11-20T09:00:00:Z","depth":"2","parameterNumber":3,"parameterNumberName":"V-component_of_CURRENTS"},"data":[0,0,0,0,0,0,0,0,0,0,0,0,0,0,0,0,0,0,0,0,0,0,0,0,0,0,0,0,0,0,0,0,0,0,0,0,0,0,0,0,0,0,0,0,0,0,0,0,0,0,0,0,0,0,0,0,0,0,-0.0041,-0.0042,0,-0.0086,-0.0086,-0.0087,-0.0109,-0.0109,-0.0109,-0.0109,-0.0211,-0.0214,-0.0216,0,0,0,0,0,0,0,0,0,0,0,0,0,-0.0026,-0.0026,-0.0041,-0.0042,-0.0042,-0.0086,-0.0086,-0.0087,-0.0109,-0.0109,-0.0109,-0.0109,-0.021,-0.0213,-0.0216,0,0,0,0,0,0,0,0,0,0,0,0,0,-0.0047,-0.0026,-0.0041,-0.0059,-0.0061,-0.0086,-0.0086,-0.0087,-0.0109,-0.0109,-0.0109,-0.0109,-0.0209,-0.0213,-0.0217,-0.024,0,0,-0.0229,-0.0231,0,0,0,0,0,0,0,0,-0.0046,-0.0048,-0.0056,-0.0058,-0.006,-0.0092,-0.0119,-0.0141,-0.0109,-0.009,-0.0109,-0.0109,-0.0177,-0.0184,-0.019,-0.0245,-0.0249,-0.023,-0.0232,-0.0234,-0.0235,0,0,0,0,0,0,0,-0.0044,-0.0046,-0.0058,-0.0056,-0.0059,-0.0082,-0.0085,-0.0123,-0.0133,-0.0092,-0.0093,-0.0099,-0.0179,-0.0186,-0.0193,-0.0251,-0.0229,-0.0233,-0.0235,-0.0237,-0.0369,-0.037,0,0,0,0,0,0,-0.0037,-0.0044,-0.0057,-0.006,-0.0054,-0.0082,-0.0085,-0.0081,-0.0131,-0.0139,-0.0099,-0.01,-0.0179,-0.0188,-0.0197,-0.0216,-0.0234,-0.0237,-0.024,-0.0368,-0.037,-0.0371,0,0,0,0,0,0,-0.0037,-0.0037,-0.0055,-0.0054,-0.0058,-0.0082,-0.0078,-0.0082,-0.0091,-0.0137,-0.0145,-0.0103,-0.018,-0.0191,-0.023,-0.0221,-0.0239,-0.0243,-0.0367,-0.0369,-0.037,-0.0263,0,0,0,0,0,0,-0.0036,-0.0037,-0.0034,-0.0053,-0.0058,-0.0061,-0.0078,-0.0083,-0.0094,-0.0096,-0.0143,-0.0153,-0.0181,-0.0224,-0.0234,-0.0227,-0.0246,-0.0365,-0.0368,-0.037,-0.0265,-0.0261,-0.0257,0,0,0,0,0,-0.0035,-0.0019,-0.0033,-0.0035,-0.0052,-0.0061,-0.0065,-0.0083,-0.0094,-0.0092,-0.0129,-0.0151,-0.0245,-0.0228,-0.024,-0.0233,-0.0364,-0.0367,-0.0369,-0.0267,-0.0262,-0.0257,0,0,0,0,0,0,0.0,-0.0021,-0.0036,-0.0025,-0.0043,-0.0065,-0.0062,-0.0082,-0.0108,-0.0111,-0.0157,-0.0169,-0.0206,-0.0244,-0.0224,-0.0285,-0.0312,-0.0317,-0.023,-0.0226,-0.0222,-0.0166,-0.0249,0,0,0,0,0,0.0005,0.0005,-0.0018,-0.001,-0.0015,-0.0042,-0.005,-0.0063,-0.0089,-0.0099,-0.0135,-0.0183,-0.0227,-0.0243,-0.0291,-0.0314,-0.0337,-0.0326,-0.0322,-0.0317,-0.0285,-0.0312,-0.0305,-0.0379,-0.0379,-0.0379,0,0,0.0022,0.0009,0.001,-0.0005,-0.0017,-0.001,-0.0045,-0.0049,-0.0045,-0.0109,-0.0117,-0.0172,-0.0235,-0.0262,-0.0282,-0.0287,-0.0316,-0.0321,-0.0316,-0.0285,-0.0313,-0.0305,-0.0298,-0.0381,-0.038,-0.038,0,0,0.0059,0.0044,0.0056,0.0044,0.0024,0.0014,0.0014,-0.0011,-0.0024,-0.0051,-0.0096,-0.013,-0.0208,-0.0226,-0.0253,-0.0258,-0.0301,-0.03,-0.0216,-0.0243,-0.0235,-0.0229,-0.0264,-0.0262,-0.0287,-0.0286,-0.0286,0,0.0078,0.0093,0.0059,0.0066,0.0073,0.003,0.0056,0.0034,-0.0003,-0.0002,-0.0046,-0.0127,-0.018,-0.0187,-0.0192,-0.024,-0.0274,-0.0219,-0.0231,-0.0225,-0.022,-0.0258,-0.0256,-0.0281,-0.0282,-0.0283,-0.0283,0,0.012,0.0132,0.0142,0.0141,0.0142,0.0157,0.013,0.0122,0.0091,0.007,0.004,-0.0033,-0.0066,-0.0108,-0.015,-0.0144,-0.0187,-0.0225,-0.0225,-0.0205,-0.0248,-0.0248,-0.0275,-0.0276,-0.0278,-0.0279,0,0,0.0168,0.0174,0.0177,0.0194,0.0187,0.0197,0.0208,0.0217,0.0235,0.0172,0.0197,0.0111,0.008,0.0048,-0.0013,-0.0037,-0.0046,-0.0108,-0.0111,-0.0109,-0.0114,-0.0172,-0.0178,-0.0089,-0.0088,-0.0087,-0.0162,0,0.0215,0.0256,0.0251,0.0302,0.0324,0.0305,0.0328,0.0323,0.0298,0.0303,0.0237,0.0225,0.0135,0.0127,0.0089,-0.001,-0.004,-0.0022,-0.0162,-0.0166,-0.0191,-0.0178,-0.0147,-0.0213,-0.0163,-0.0163,-0.0163,0,0.0252,0.0281,0.0345,0.0388,0.0401,0.0428,0.047,0.0488,0.0481,0.0455,0.0437,0.0384,0.0357,0.0265,0.0142,0.0153,0.0038,-0.005,-0.0055,-0.0135,-0.0222,-0.0228,-0.0216,-0.0163,-0.0163,-0.0163,-0.0163,0,0.0291,0.0342,0.0406,0.0417,0.0461,0.0495,0.0527,0.0538,0.0573,0.0574,0.0605,0.0529,0.0512,0.0375,0.0196,0.0171,0.0042,-0.0017,-0.0176,-0.0182,-0.0193,-0.0202,-0.0099,-0.0099,-0.0099,-0.0099,-0.0098,0,0.0332,0.0378,0.0428,0.0458,0.054,0.0556,0.0639,0.0647,0.0692,0.0777,0.0707,0.0759,0.0537,0.044,0.0254,0.0046,0.0086,-0.0143,-0.0195,-0.0162,-0.0167,-0.0153,-0.0158,-0.0101,-0.0101,-0.01,-0.01,0,0.0352,0.0385,0.0454,0.0526,0.0555,0.0614,0.0711,0.0774,0.0816,0.093,0.0954,0.0918,0.0802,0.0564,0.0329,0.0131,-0.0068,-0.0158,-0.0112,-0.0157,-0.0291,-0.029,-0.0328,-0.033,-0.0332,-0.0334,-0.0335,0,0.037,0.0408,0.05,0.0552,0.0589,0.0678,0.0752,0.0814,0.0905,0.1055,0.1134,0.1069,0.1033,0.0658,0.0299,-0.0046,-0.0082,-0.0254,-0.0295,-0.0262,-0.031,-0.0306,-0.0303,-0.0279,-0.0279,-0.028,-0.0281,0,0.041,0.0439,0.0499,0.0606,0.0691,0.0808,0.093,0.1028,0.116,0.1281,0.144,0.1433,0.1076,0.0733,0.0228,0.0002,-0.02,-0.0281,-0.0238,-0.0231,-0.0224,-0.0268,-0.0265,-0.0287,-0.0286,-0.0286,-0.0286,-0.0285,0.0444,0.0486,0.0572,0.0681,0.0786,0.0974,0.1129,0.1273,0.148,0.1692,0.1633,0.1615,0.1181,0.054,0.0152,-0.0254,-0.0247,-0.0397,-0.0391,-0.0385,-0.0371,-0.0368,-0.0457,-0.0457,-0.0457,-0.0458,-0.0458,0,0.0499,0.0555,0.065,0.0818,0.0987,0.1022,0.1284,0.1464,0.1756,0.1808,0.1884,0.149,0.107,0.0613,0.0004,-0.0383,-0.0395,-0.0489,-0.0413,-0.0405,-0.0398,-0.0382,-0.0473,-0.0473,-0.0474,-0.0475,0,0,0.0533,0.0637,0.0698,0.0992,0.112,0.1416,0.1604,0.1818,0.1927,0.2016,0.1947,0.1728,0.1168,0.0722,0.0213,-0.0112,-0.0166,-0.0182,-0.0134,0.0024,0.0036,-0.0317,-0.0281,0,0,0,0,0]}],[{"header":{"parameterUnit":"m.s-1","parameterCategory":2,"la1":30.2991,"la2":30.254,"lo1":-89.0895,"lo2":-89.0444,"dy":0.0017,"dx":0.0017,"nx":28,"ny":28,"refTime":"2023-11-20T09:00:00:Z","depth":"4","parameterNumber":2,"parameterNumberName":"U-component_of_CURRENTS"},"data":[0,0,0,0,0,0,0,0,0,0,0,0,0,0,0,0,0,0,0,0,0,0,0,0,0,0,0,0,0,0,0,0,0,0,0,0,0,0,0,0,0,0,0,0,0,0,0,0,0,0,0,0,0,0,0,0,0,0,0.1483,0.1484,0,0.1508,0.1508,0.1508,0.1564,0.1565,0.1567,0.1569,0.156,0.1558,0.1556,0,0,0,0,0,0,0,0,0,0,0,0,0,0.1313,0.1316,0.1483,0.1484,0.1485,0.1508,0.1508,0.1507,0.1563,0.1566,0.1568,0.157,0.156,0.1558,0.1556,0,0,0,0,0,0,0,0,0,0,0,0,0,0.136,0.1317,0.1483,0.1521,0.1525,0.1508,0.1508,0.1507,0.1563,0.1566,0.1568,0.1571,0.1561,0.1558,0.1555,0.1482,0,0,0.1546,0.1545,0,0,0,0,0,0,0,0,0.1358,0.1366,0.1514,0.1518,0.1523,0.1542,0.1445,0.15,0.1562,0.154,0.1569,0.1572,0.1553,0.1551,0.154,0.1482,0.1481,0.1546,0.1544,0.1543,0.1542,0,0,0,0,0,0,0,0.1355,0.1364,0.1485,0.1515,0.1521,0.1479,0.149,0.1454,0.1525,0.1543,0.1549,0.1563,0.1555,0.1542,0.154,0.1481,0.1546,0.1543,0.1542,0.154,0.1524,0.1525,0,0,0,0,0,0,0.1373,0.1362,0.1485,0.1487,0.1454,0.1481,0.1493,0.1527,0.1526,0.1531,0.156,0.1565,0.1546,0.1543,0.154,0.1608,0.1543,0.154,0.1538,0.1522,0.1524,0.1526,0,0,0,0,0,0,0.137,0.1384,0.1484,0.1429,0.144,0.1484,0.152,0.1526,0.1555,0.1541,0.1545,0.1589,0.1548,0.1544,0.1568,0.1602,0.1539,0.1536,0.1521,0.1523,0.1525,0.1645,0,0,0,0,0,0,0.1365,0.1383,0.1413,0.1431,0.1444,0.1498,0.1519,0.1525,0.156,0.1568,0.1565,0.1565,0.155,0.1573,0.1566,0.1597,0.1534,0.1519,0.1522,0.1524,0.1639,0.165,0.166,0,0,0,0,0,0.1359,0.1387,0.1415,0.143,0.1486,0.1499,0.1501,0.1533,0.156,0.1568,0.1594,0.1567,0.1583,0.1572,0.1563,0.1594,0.1518,0.1521,0.1524,0.1634,0.1648,0.166,0,0,0,0,0,0,0.1324,0.1397,0.1427,0.1478,0.1501,0.1512,0.1524,0.1547,0.1569,0.1587,0.158,0.1581,0.1602,0.1581,0.1569,0.1596,0.1546,0.1547,0.1633,0.1646,0.1656,0.1697,0.1531,0,0,0,0,0,0.1333,0.138,0.1427,0.1465,0.1482,0.1507,0.1519,0.1544,0.1566,0.158,0.1586,0.1593,0.1594,0.1614,0.1588,0.1608,0.1617,0.1623,0.1633,0.1643,0.167,0.1737,0.1758,0.1535,0.1535,0.1535,0,0,0.1327,0.1375,0.1401,0.1461,0.148,0.15,0.152,0.1549,0.1584,0.157,0.1616,0.1611,0.1601,0.1628,0.1637,0.163,0.1706,0.1647,0.1655,0.1677,0.1743,0.1765,0.1785,0.1537,0.1537,0.1537,0,0,0.1329,0.1385,0.1422,0.1442,0.1491,0.1506,0.1526,0.1559,0.1599,0.1626,0.1641,0.1695,0.1657,0.171,0.1717,0.1772,0.1739,0.1736,0.1851,0.1916,0.1936,0.1954,0.1979,0.1998,0.1768,0.1769,0.1769,0,0.1324,0.1383,0.1426,0.1456,0.1484,0.1517,0.1549,0.1576,0.1619,0.1669,0.1653,0.1709,0.1709,0.1805,0.1837,0.1803,0.1808,0.1806,0.1935,0.1952,0.1969,0.199,0.2009,0.1775,0.1774,0.1773,0.1773,0,0.1336,0.1391,0.1406,0.147,0.15,0.1524,0.158,0.1627,0.1668,0.1705,0.1795,0.1821,0.1886,0.188,0.1876,0.1999,0.1952,0.1922,0.1911,0.1999,0.2014,0.2032,0.1784,0.1781,0.178,0.1778,0,0,0.1301,0.1404,0.1409,0.1447,0.1516,0.1533,0.1618,0.1704,0.1776,0.1824,0.1926,0.1986,0.2038,0.2056,0.2081,0.2149,0.227,0.2098,0.2098,0.2137,0.2385,0.2197,0.2197,0.2256,0.2261,0.2264,0.2345,0,0.13,0.1359,0.1429,0.1479,0.1503,0.1589,0.1664,0.1749,0.1819,0.1911,0.2009,0.2076,0.2095,0.2144,0.2236,0.2248,0.2325,0.2249,0.228,0.2281,0.2117,0.2216,0.2277,0.2358,0.2362,0.2365,0.2367,0,0.1267,0.1324,0.1384,0.1503,0.1529,0.1583,0.1723,0.1794,0.1945,0.2021,0.2159,0.219,0.2357,0.2315,0.248,0.2424,0.2436,0.243,0.2433,0.2234,0.2128,0.2253,0.24,0.2397,0.2395,0.2393,0.2391,0,0.1162,0.128,0.1337,0.1363,0.1502,0.1589,0.168,0.183,0.1909,0.21,0.2159,0.2348,0.2429,0.2513,0.2548,0.2523,0.265,0.2614,0.2458,0.2443,0.2536,0.2516,0.2718,0.2718,0.2718,0.2718,0.2718,0,0.1089,0.1123,0.1302,0.1314,0.1403,0.1541,0.1643,0.1785,0.1967,0.2051,0.2222,0.2304,0.2476,0.2549,0.2587,0.2585,0.2711,0.2502,0.2469,0.2577,0.2562,0.2547,0.2526,0.2721,0.272,0.272,0.2719,0,0.0922,0.1034,0.1101,0.129,0.134,0.1404,0.1587,0.1673,0.1878,0.1999,0.2062,0.2292,0.2417,0.2525,0.264,0.26,0.2621,0.2575,0.2678,0.2644,0.2361,0.2345,0.244,0.2434,0.243,0.2426,0.2422,0,0.083,0.0854,0.1034,0.108,0.117,0.1277,0.1359,0.1597,0.1689,0.1957,0.2007,0.2183,0.2307,0.2355,0.2485,0.2559,0.2522,0.2512,0.246,0.2383,0.2342,0.2334,0.2325,0.2415,0.2413,0.2412,0.2411,0,0.0675,0.0763,0.0833,0.0926,0.1026,0.1103,0.1251,0.1305,0.1579,0.1744,0.1913,0.2008,0.2131,0.2256,0.2315,0.2358,0.2519,0.2462,0.2472,0.2424,0.2353,0.2315,0.2312,0.2395,0.2397,0.2398,0.2399,0,0.0571,0.0587,0.0706,0.0779,0.0869,0.0956,0.1045,0.1197,0.1324,0.1653,0.1681,0.1915,0.2096,0.2148,0.2206,0.2239,0.2219,0.2151,0.2177,0.2196,0.208,0.1952,0.1869,0,0,0,0,0,0.0485,0.0503,0.0553,0.0659,0.0744,0.0818,0.0988,0.1104,0.1332,0.1409,0.1563,0.1681,0.1828,0.1939,0.1931,0.2084,0.2207,0.2062,0.2136,0.2304,0.2323,0.2208,0,0,0,0,0,0,0.0434,0.047,0.051,0.0539,0.0586,0.0697,0.0814,0.0992,0.1049,0.1282,0.1374,0.1541,0.1704,0.1806,0.1883,0.1915,0.1921,0.2196,0.2191,0.2293,0.231,0.2325,0.2214,0,0,0,0,0]},{"header":{"parameterUnit":"m.s-1","parameterCategory":2,"la1":30.2991,"la2":30.254,"lo1":-89.0895,"lo2":-89.0444,"dy":0.0017,"dx":0.0017,"nx":28,"ny":28,"refTime":"2023-11-20T09:00:00:Z","depth":"4","parameterNumber":3,"parameterNumberName":"V-component_of_CURRENTS"},"data":[0,0,0,0,0,0,0,0,0,0,0,0,0,0,0,0,0,0,0,0,0,0,0,0,0,0,0,0,0,0,0,0,0,0,0,0,0,0,0,0,0,0,0,0,0,0,0,0,0,0,0,0,0,0,0,0,0,0,0.0042,0.0042,0,0.0037,0.0037,0.0037,0.003,0.0029,0.0029,0.0029,0.0046,0.0047,0.0048,0,0,0,0,0,0,0,0,0,0,0,0,0,0.0051,0.0051,0.0042,0.0042,0.0042,0.0037,0.0037,0.0037,0.003,0.0029,0.0029,0.0028,0.0046,0.0047,0.0048,0,0,0,0,0,0,0,0,0,0,0,0,0,0.0049,0.0051,0.0042,0.0035,0.0034,0.0037,0.0037,0.0037,0.003,0.0029,0.0029,0.0028,0.0046,0.0047,0.0048,0.0067,0,0,0.0052,0.0053,0,0,0,0,0,0,0,0,0.0049,0.0049,0.0037,0.0036,0.0035,0.0031,0.0046,0.0047,0.003,0.0034,0.0028,0.0028,0.0042,0.0044,0.0047,0.0068,0.0069,0.0052,0.0053,0.0054,0.0054,0,0,0,0,0,0,0,0.005,0.005,0.0043,0.0036,0.0035,0.0034,0.0033,0.0047,0.0044,0.0034,0.0033,0.0028,0.0042,0.0046,0.0048,0.0069,0.0052,0.0053,0.0054,0.0055,0.0141,0.0142,0,0,0,0,0,0,0.0045,0.005,0.0043,0.0042,0.0038,0.0034,0.0033,0.0035,0.0043,0.0043,0.0028,0.0028,0.0044,0.0046,0.0048,0.0092,0.0054,0.0055,0.0055,0.0139,0.0141,0.0143,0,0,0,0,0,0,0.0046,0.0045,0.0043,0.0043,0.0043,0.0034,0.0036,0.0035,0.0038,0.0038,0.0039,0.0031,0.0044,0.0047,0.0068,0.0092,0.0055,0.0056,0.0137,0.014,0.0142,0.0166,0,0,0,0,0,0,0.0046,0.0045,0.0048,0.0043,0.0042,0.0056,0.0036,0.0035,0.0034,0.0033,0.0041,0.0042,0.0044,0.0066,0.0069,0.0093,0.0057,0.0135,0.0138,0.0141,0.0163,0.0168,0.0173,0,0,0,0,0,0.0046,0.0063,0.0048,0.0047,0.0045,0.0056,0.0057,0.005,0.0035,0.0048,0.0049,0.0042,0.0087,0.0068,0.0071,0.0096,0.0134,0.0138,0.0141,0.016,0.0167,0.0173,0,0,0,0,0,0,0.0079,0.0063,0.0047,0.006,0.0057,0.0054,0.0064,0.0052,0.0062,0.0062,0.0056,0.0058,0.0089,0.0092,0.0071,0.0132,0.0112,0.0116,0.0126,0.0132,0.0137,0.0107,0.0058,0,0,0,0,0,0.0082,0.0084,0.0072,0.0081,0.0081,0.0069,0.007,0.0067,0.0071,0.0074,0.0079,0.0091,0.0108,0.0117,0.0136,0.0163,0.0109,0.0185,0.0191,0.0195,0.0174,0.0099,0.0093,0.0154,0.0154,0.0154,0,0,0.0098,0.0087,0.0089,0.0086,0.0083,0.0103,0.007,0.0082,0.01,0.0076,0.0109,0.011,0.012,0.0155,0.0169,0.0157,0.0154,0.0199,0.0202,0.0179,0.0101,0.0094,0.0088,0.0157,0.0156,0.0156,0,0,0.0133,0.012,0.0132,0.0136,0.0131,0.013,0.0132,0.0134,0.0135,0.0166,0.015,0.0149,0.0199,0.0187,0.0193,0.0236,0.0185,0.0265,0.0262,0.0189,0.0182,0.0175,0.0108,0.0094,0.0265,0.0265,0.0265,0,0.015,0.0159,0.014,0.0159,0.0166,0.0144,0.017,0.0177,0.0187,0.0177,0.0189,0.0199,0.0209,0.0203,0.0227,0.0243,0.0194,0.0234,0.019,0.0182,0.0174,0.0107,0.0092,0.0267,0.0266,0.0266,0.0266,0,0.0195,0.0204,0.0217,0.0227,0.024,0.0259,0.026,0.0268,0.0267,0.0258,0.0256,0.0252,0.0244,0.0262,0.0264,0.0224,0.0205,0.0202,0.0162,0.0168,0.0099,0.0083,0.0269,0.0268,0.0268,0.0267,0,0,0.022,0.0241,0.0245,0.0254,0.0273,0.0288,0.0315,0.0313,0.0307,0.0313,0.0291,0.031,0.027,0.0272,0.0255,0.0198,0.0116,0.0182,0.0178,0.0094,-0.0049,-0.002,-0.0035,0.01,0.0097,0.0095,-0.0074,0,0.0252,0.0297,0.0301,0.0346,0.0366,0.0358,0.0381,0.0378,0.0371,0.035,0.0302,0.0295,0.0287,0.0276,0.0214,0.0146,0.0073,0.0161,-0.0024,-0.003,-0.0024,-0.0053,0.0086,-0.0086,-0.009,-0.0093,-0.0095,0,0.028,0.0307,0.0359,0.0381,0.0389,0.0421,0.0422,0.044,0.0399,0.0389,0.034,0.0299,0.0223,0.0218,0.0057,0.0114,0.0028,-0.0035,-0.0043,-0.0043,-0.0032,-0.0094,-0.0125,-0.0123,-0.0121,-0.0119,-0.0117,0,0.0289,0.0336,0.0376,0.0393,0.0428,0.0443,0.0459,0.0445,0.046,0.0397,0.039,0.0279,0.0237,0.0105,-0.0006,0.0013,-0.0195,-0.0185,-0.0254,-0.0253,-0.0242,-0.0233,-0.0333,-0.0332,-0.0332,-0.0332,-0.0331,0,0.031,0.0341,0.0385,0.0412,0.0462,0.0468,0.0501,0.0498,0.0485,0.0497,0.0405,0.0378,0.0206,0.0082,-0.0035,-0.019,-0.0225,-0.0279,-0.0303,-0.0222,-0.0209,-0.0254,-0.0243,-0.0338,-0.0336,-0.0335,-0.0334,0,0.0332,0.0348,0.0402,0.045,0.0471,0.0513,0.0569,0.0595,0.0563,0.0571,0.0554,0.0435,0.0275,0.0097,-0.0124,-0.0209,-0.037,-0.0422,-0.0331,-0.0343,-0.0379,-0.0364,-0.0531,-0.0532,-0.0532,-0.0532,-0.0533,0,0.036,0.0387,0.0452,0.0496,0.0531,0.0589,0.0642,0.0648,0.0673,0.0618,0.0622,0.0464,0.0368,0.0073,-0.012,-0.0384,-0.0402,-0.0501,-0.0441,-0.0397,-0.0404,-0.0388,-0.0373,-0.0533,-0.0534,-0.0534,-0.0534,0,0.0427,0.044,0.0486,0.057,0.064,0.0716,0.0772,0.0791,0.0786,0.076,0.0683,0.0522,0.0331,0.0094,-0.012,-0.0298,-0.0444,-0.0506,-0.0506,-0.0451,-0.0402,-0.0405,-0.0389,-0.0535,-0.0535,-0.0535,-0.0535,0,0.0483,0.0525,0.0571,0.064,0.0724,0.0798,0.0832,0.0851,0.0865,0.0792,0.0764,0.0557,0.0422,0.0136,-0.0052,-0.0236,-0.0272,-0.0318,-0.0328,-0.0329,-0.0206,-0.011,-0.0197,0,0,0,0,0,0.0532,0.0561,0.064,0.0708,0.0791,0.0843,0.0897,0.0916,0.0894,0.0869,0.0816,0.0646,0.0355,0.0211,0.0034,-0.0067,-0.0313,-0.0282,-0.0372,-0.0544,-0.0543,-0.0429,0,0,0,0,0,0,0.0558,0.0622,0.064,0.0738,0.0802,0.0913,0.0952,0.0962,0.0919,0.0867,0.0711,0.062,0.0328,0.0469,0.004,-0.0022,-0.01,-0.0428,-0.0432,-0.0545,-0.0544,-0.0542,-0.0424,0,0,0,0,0]}]]